Location: Asheville, NC
(35.6000°N, 82.5500°W)
Time: 07:13:10
(UTC-04:00)

Envisat - Pass Details

Date: 10 February 2018
Orbit: 764 x 766 km, 98.2° (Epoch: 20 May)

Event Time Altitude Azimuth Distance (km) Brightness Sun altitude
Exits shadow 19:03:16 12° 111° (ESE) 2,168 4.8 -11.9°
Maximum altitude 19:06:31 21° 67° (ENE) 1,672 4.2 -12.6°
Drops below altitude 10° 19:10:13 10° 20° (NNE) 2,303 5.2 -13.3°
Sets 19:13:02 0° 5° (N) 3,234 6.1 -13.9°
